Location: Albany
(35.0170°S, 117.8920°E)
Time: 17:01:00
(UTC+08:00)

Transit 2A - Pass Details

Date: 31 January 2021
Orbit: 601 x 958 km, 66.7° (Epoch: 02 March)

Event Time Altitude Azimuth Distance (km) Brightness Sun altitude
Rises 15:44:39 0° 272° (W) 3,076 10.0 41.8°
Reaches altitude 10° 15:49:35 10° 229° (SW) 2,281 9.1 40.8°
Maximum altitude 15:50:14 10° 222° (SW) 2,283 9.0 40.6°
Drops below altitude 10° 15:50:53 10° 214° (SW) 2,314 8.9 40.5°
Sets 15:56:15 0° 172° (S) 3,379 9.2 39.4°
